| time (UTC) | temp C | wind direction | speed KPH | gust KPH | rain 1hr cm | rain 24hr cm | rain mn cm | humidity % | barometer mb |
| 20260504033035 | 10 | 276 | 4.8 | 19.3 | 0.00 | 0.03 | 0.03 | 70 | 1008.3 |
| 20260504031539 | 10 | 137 | 3.2 | 16.1 | 0.00 | 0.03 | 0.03 | 70 | 1008.5 |
| 20260504030036 | 10 | 206 | 8.0 | 19.3 | 0.00 | 0.03 | 0.03 | 70 | 1008.9 |
| 20260504024534 | 10 | 196 | 4.8 | 19.3 | 0.00 | 0.03 | 0.03 | 70 | 1009.0 |
| 20260504023040 | 10 | 214 | 3.2 | 9.7 | 0.00 | 0.03 | 0.03 | 70 | 1009.0 |
| 20260504021540 | 10 | 338 | 4.8 | 19.3 | 0.00 | 0.03 | 0.03 | 70 | 1008.9 |
| 20260504020040 | 10 | 218 | 4.8 | 16.1 | 0.00 | 0.03 | 0.03 | 70 | 1009.0 |
| 20260504014546 | 10 | 290 | 4.8 | 12.9 | 0.00 | 0.03 | 0.03 | 69 | 1008.8 |
| 20260504013036 | 10 | 150 | 4.8 | 17.7 | 0.00 | 0.03 | 0.03 | 68 | 1009.0 |
| 20260504011534 | 11 | 181 | 1.6 | 16.1 | 0.00 | 0.03 | 0.03 | 67 | 1009.1 |
| 20260504010034 | 11 | 127 | 1.6 | 12.9 | 0.00 | 0.03 | 0.03 | 67 | 1009.0 |
| 20260504004542 | 11 | 231 | 4.8 | 12.9 | 0.00 | 0.03 | 0.03 | 65 | 1009.1 |
| 20260504003040 | 11 | 264 | 6.4 | 16.1 | 0.00 | 0.03 | 0.03 | 64 | 1009.1 |
| 20260504001555 | 12 | 244 | 9.7 | 24.1 | 0.00 | 0.03 | 0.03 | 63 | 1009.4 |
| 20260504000037 | 12 | 298 | 9.7 | 27.4 | 0.00 | 0.03 | 0.03 | 62 | 1009.4 |
| 20260503234536 | 12 | 258 | 8.0 | 24.1 | 0.00 | 0.03 | 0.03 | 61 | 1009.5 |
| 20260503233043 | 13 | 322 | 8.0 | 29.0 | 0.00 | 0.03 | 0.03 | 59 | 1009.2 |
| 20260503231541 | 13 | 239 | 8.0 | 24.1 | 0.00 | 0.03 | 0.03 | 57 | 1009.4 |
| 20260503230041 | 14 | 290 | 12.9 | 29.0 | 0.00 | 0.03 | 0.03 | 54 | 1009.2 |
| 20260503224540 | 14 | 245 | 17.7 | 30.6 | 0.00 | 0.03 | 0.03 | 51 | 1009.2 |
| 20260503223036 | 15 | 250 | 12.9 | 35.4 | 0.00 | 0.03 | 0.03 | 50 | 1009.2 |
| 20260503221536 | 15 | 114 | 11.3 | 25.7 | 0.00 | 0.03 | 0.03 | 48 | 1009.3 |
| 20260503220036 | 16 | 248 | 11.3 | 33.8 | 0.00 | 0.03 | 0.03 | 47 | 1009.3 |
| 20260503214532 | 16 | 240 | 14.5 | 32.2 | 0.00 | 0.03 | 0.03 | 46 | 1009.3 |
| 20260503213038 | 15 | 212 | 16.1 | 37.0 | 0.00 | 0.03 | 0.03 | 45 | 1009.2 |
| 20260503211541 | 16 | 271 | 19.3 | 33.8 | 0.00 | 0.03 | 0.03 | 44 | 1009.3 |
| 20260503210037 | 16 | 286 | 11.3 | 27.4 | 0.00 | 0.03 | 0.03 | 46 | 1009.2 |
| 20260503204540 | 16 | 76 | 12.9 | 38.6 | 0.00 | 0.03 | 0.03 | 45 | 1009.3 |
| 20260503203036 | 16 | 262 | 9.7 | 27.4 | 0.00 | 0.03 | 0.03 | 46 | 1009.4 |
| 20260503201534 | 16 | 219 | 14.5 | 38.6 | 0.00 | 0.03 | 0.03 | 44 | 1009.6 |
| 20260503200038 | 16 | 131 | 14.5 | 30.6 | 0.00 | 0.03 | 0.03 | 43 | 1009.7 |
| 20260503194542 | 16 | 231 | 14.5 | 30.6 | 0.00 | 0.03 | 0.03 | 42 | 1009.8 |
| 20260503193042 | 16 | 253 | 11.3 | 33.8 | 0.03 | 0.03 | 0.03 | 44 | 1010.1 |
| 20260503191535 | 16 | 262 | 16.1 | 33.8 | 0.03 | 0.03 | 0.03 | 42 | 1010.3 |
| 20260503190036 | 16 | 236 | 11.3 | 46.7 | 0.03 | 0.03 | 0.03 | 42 | 1010.6 |
| 20260503184535 | 16 | 259 | 16.1 | 37.0 | 0.03 | 0.03 | 0.03 | 43 | 1010.5 |
| 20260503183043 | 15 | 249 | 14.5 | 46.7 | 0.00 | 0.00 | 0.00 | 43 | 1010.8 |
| 20260503181532 | 16 | 43 | 17.7 | 38.6 | 0.00 | 0.00 | 0.00 | 41 | 1010.9 |
| 20260503180041 | 16 | 274 | 20.9 | 54.7 | 0.00 | 0.00 | 0.00 | 41 | 1011.1 |
| 20260503174537 | 15 | 233 | 11.3 | 33.8 | 0.00 | 0.00 | 0.00 | 46 | 1011.4 |
| 20260503173035 | 14 | 230 | 9.7 | 33.8 | 0.00 | 0.00 | 0.00 | 46 | 1011.6 |
| 20260503171536 | 14 | 279 | 11.3 | 35.4 | 0.00 | 0.00 | 0.00 | 47 | 1012.0 |
| 20260503081535 | 1 | 219 | 1.6 | 4.8 | 0.00 | 0.00 | 0.00 | 70 | 1014.5 |
| 20260503071536 | 0 | 0 | 0.0 | 3.2 | 0.00 | 0.00 | 0.00 | 74 | 1014.5 |
| 20260503054540 | 1 | 0 | 0.0 | 1.6 | 0.00 | 0.00 | 0.00 | 72 | 1015.3 |
| 20260503053036 | 1 | 0 | 0.0 | 1.6 | 0.00 | 0.00 | 0.00 | 73 | 1015.3 |
| 20260503051534 | 1 | 273 | 0.0 | 1.6 | 0.00 | 0.00 | 0.00 | 73 | 1015.3 |
| 20260503050032 | 1 | 0 | 0.0 | 3.2 | 0.00 | 0.00 | 0.00 | 72 | 1015.4 |
| 20260503044540 | 2 | 221 | 0.0 | 3.2 | 0.00 | 0.00 | 0.00 | 71 | 1015.5 |
| 20260503043033 | 1 | 0 | 0.0 | 1.6 | 0.00 | 0.00 | 0.00 | 73 | 1015.4 |
| 20260503041534 | 1 | 0 | 0.0 | 1.6 | 0.00 | 0.00 | 0.00 | 74 | 1015.6 |
| 20260503040038 | 1 | 0 | 0.0 | 1.6 | 0.00 | 0.00 | 0.00 | 74 | 1015.6 |
| 20260503034534 | 1 | 0 | 0.0 | 0.0 | 0.00 | 0.00 | 0.00 | 75 | 1015.7 |